Corpus Christi, TX

1:18 AM CDT on June 29, 2017 (GMT -0500)
Corpus Christi International

Weather History for KCRP - August, 2012

Change the Weather History Date:

Friday, August 31, 2012

  Actual Average Record
Temperature  
Mean Temperature 93 °F 84 °F  
Max Temperature 102 °F 93 °F 103 °F (2000)
Min Temperature 84 °F 75 °F 67 °F (1915)
Degree Days  
Heating Degree Days 0 0  
Month to date heating degree days 0 0  
Since 1 June heating degree days 0 0  
Since 1 July heating degree days 0 0  
Cooling Degree Days 28 19  
Month to date cooling degree days 731 611  
Year to date cooling degree days 3231 2561  
Since 1 June cooling degree days 1998 1720  
Growing Degree Days 43 (Base 50)    
Moisture  
Dew Point 74 °F    
Average Humidity 56    
Maximum Humidity 75    
Minimum Humidity 37    
Precipitation  
Precipitation 0.00 in 0.16 in 2.13 in (1987)
Month to date precipitation 0.12 2.92  
Year to date precipitation 14.42 19.34  
Snow  
Snow 0.00 in - - ()
Month to date snowfall 0.0  
Since 1 June snowfall 0.0  
Since 1 July snowfall 0.0  
Snow Depth 0.00 in    
Sea Level Pressure  
Sea Level Pressure 29.90 in    
Wind  
Wind Speed 15 mph (SSE)    
Max Wind Speed 25 mph    
Max Gust Speed 36 mph    
Visibility 10 miles    
Events      
T = Trace of Precipitation, MM = Missing Value Source: NWS Daily Summary

Daily Weather History Graph

Daily Weather History Graph

Search for Another Location

Airport or City:

Trip Planner

Search our weather history database for the weather conditions in past years. The results will help you decide how hot, cold, wet, or windy it might be!

Date:

Astronomy

Aug. 31, 2012 Rise Set
Actual Time 7:08 AM CDT 7:51 PM CDT
Civil Twilight 6:44 AM CDT 8:15 PM CDT
Nautical Twilight 6:16 AM CDT 8:42 PM CDT
Astronomical Twilight 5:48 AM CDT 9:11 PM CDT
Moon 7:46 PM CDT (8/31) 7:09 AM CDT (8/31)
Length of Visible Light 13h 30m
Length of Day
12h 42m
Full, 100% of the Moon is Illuminated
Aug 31
Full
Sep 8
Last Quarter
Sep 15
New
Sep 22
First Quarter
Sep 29
Full

Hourly Weather History & Observations

Time (CDT) Temp. Heat Index Dew Point Humidity Pressure Visibility Wind Dir Wind Speed Gust Speed Precip Events Conditions
12:51 AM 87.1 °F 97.3 °F 75.9 °F 69% 29.81 in 10.0 mi South 10.4 mph - N/A   Clear
1:51 AM 86.0 °F 95.1 °F 75.0 °F 70% 29.82 in 10.0 mi South 8.1 mph - N/A   Clear
2:51 AM 84.0 °F 90.2 °F 73.0 °F 69% 29.82 in 10.0 mi SSE 5.8 mph - N/A   Clear
3:51 AM 84.0 °F 91.2 °F 73.9 °F 72% 29.83 in 10.0 mi South 11.5 mph - N/A   Clear
4:51 AM 84.0 °F 91.2 °F 73.9 °F 72% 29.84 in 10.0 mi South 12.7 mph - N/A   Clear
5:51 AM 84.0 °F 91.9 °F 75.0 °F 74% 29.86 in 10.0 mi South 13.8 mph - N/A   Clear
6:51 AM 84.0 °F 92.6 °F 75.9 °F 76% 29.88 in 10.0 mi South 10.4 mph - N/A   Partly Cloudy
7:51 AM 84.0 °F 92.6 °F 75.9 °F 76% 29.90 in 10.0 mi South 10.4 mph - N/A   Partly Cloudy
8:51 AM 88.0 °F 98.5 °F 75.9 °F 67% 29.92 in 10.0 mi South 12.7 mph - N/A   Partly Cloudy
9:51 AM 91.9 °F 103.2 °F 75.0 °F 58% 29.94 in 10.0 mi South 13.8 mph - N/A   Partly Cloudy
10:51 AM 95.0 °F 104.5 °F 73.0 °F 49% 29.94 in 10.0 mi South 16.1 mph 19.6 mph N/A   Partly Cloudy
11:51 AM 97.0 °F 104.8 °F 71.1 °F 43% 29.94 in 10.0 mi SSE 11.5 mph 19.6 mph N/A   Partly Cloudy
12:51 PM 100.0 °F 111.8 °F 73.9 °F 43% 29.93 in 10.0 mi SE 18.4 mph 24.2 mph N/A   Partly Cloudy
1:51 PM 99.0 °F 107.0 °F 71.1 °F 40% 29.92 in 10.0 mi SE 17.3 mph 27.6 mph N/A   Scattered Clouds
2:51 PM 100.0 °F 107.8 °F 70.0 °F 38% 29.91 in 10.0 mi SE 19.6 mph 26.5 mph N/A   Scattered Clouds
3:51 PM 99.0 °F 108.5 °F 72.0 °F 42% 29.90 in 10.0 mi SE 20.7 mph 29.9 mph N/A   Partly Cloudy
4:51 PM 97.0 °F 105.5 °F 72.0 °F 44% 29.90 in 10.0 mi ESE 21.9 mph 27.6 mph N/A   Partly Cloudy
5:51 PM 95.0 °F 103.2 °F 72.0 °F 47% 29.89 in 10.0 mi SE 19.6 mph 29.9 mph N/A   Partly Cloudy
6:51 PM 91.9 °F 99.5 °F 72.0 °F 52% 29.88 in 10.0 mi SE 20.7 mph - N/A   Partly Cloudy
7:51 PM 89.1 °F 98.0 °F 73.9 °F 61% 29.90 in 10.0 mi SE 20.7 mph - N/A   Partly Cloudy
8:51 PM 88.0 °F 98.5 °F 75.9 °F 67% 29.93 in 10.0 mi SE 20.7 mph 26.5 mph N/A   Scattered Clouds
9:51 PM 87.1 °F 98.8 °F 77.0 °F 72% 29.96 in 10.0 mi SE 20.7 mph - N/A   Scattered Clouds
10:51 PM 87.1 °F 98.8 °F 77.0 °F 72% 29.97 in 10.0 mi SSE 10.4 mph - N/A   Scattered Clouds
11:51 PM 86.0 °F 96.9 °F 77.0 °F 74% 29.99 in 10.0 mi SSE 13.8 mph - N/A   Partly Cloudy